SCP
0 0 0 0 0 0 0 0 0 0 0 0 0 0 0 0 0 0 0 0 0 0 0 0 -0 -0 0 0 0 0 0 0 0 0 0 0 0 0 0 0 0 0 -0
0 0 0 0 0 0 0 0 0 0 0 0 0 0 0 0 0 0 0 0 0 0 0 0 0 0 0 0 0 0 0 0 0 0 0 0 0 0 0 0 -0 0 -0
-0 -0 0 0 0 0 0 0 0 0 0 0 0 0 0 0 0 0 0 0 0 0 0 -0 0 0 0 0 0 0 0 0 0 0 0 0 0 0 0 -0 -0 -0 -0
-0 -0 0 0 0 0 0 0 0 0 0 0 0 0 0 0 0 0 0 0 0 0 0 0 0 0 0 0 0 0 0 0 0 0 0 0 0 0 0 -0 -0 -0 -0
-0 -0 -0 -0 0 0 0 0 0 0 0 0 0 0 0 0 0 0 0 0 0 0 0 0 0 0 0 0 -0 0 0 0 0 0 -0 -0 -0 0 0 0 0 0 0
0 0 0 -0 0 0 0 0 0 0 0 0 0 0 0 0 0 0 0 0 0 0 0 0 0 0 0 0 0 0 0 0 0 0 0 0 0 0 0 0 0 0 0
0 0 0 0 -0 0 0 0 0 0 0 0 0 0 0 0 0 0 0 -0 0 0 0 0 0 0 0 0 0 0 0 0 0 0 0 0 0 0 0 0 0 0 0
0 0 0 0 0 0 0 0 0 0 0 0 0 0 0 0 0 0 -0 -0 -0 -0 -0 0 0 0 0 0 0 0 0 0 0 0 0 0 0 0 0 0 0 0 0
0 0 0 0 0 0 0 0 0 0 0 0 0 0 0 0 0 0 -0 -0 -0 -0 0 0 0 0 0 0 0 0 0 0 0 0 0 0 -0 0 0 0 0 0 0
0 0 0 0 0 0 0 0 0 0 0 0 0 0 0 0 0 -0 -0 0 0 0 0 0 0 0 0 0 0 0 0 0 0 0 0 0 -0 -0 -0 0 0 0 0
0 0 0 0 0 0 0 0 0 0 0 0 0 0 0 0 0 0 0 0 0 0 0 0 0 0 0 0 0 -0 0 0 0 0 0 -0 -0 -0 -0 -0 0 0 0
0 0 0 0 0 0 0 0 0 0 0 0 0 0 0 0 0 0 0 0 0 0 0 0 0 0 0 0 0 0 0 0 0 0 0 0 -0 -0 -0 0 0 0 0
0 0 0 0 0 0 0 0 0 0 0 0 0 0 0 0 0 0 0 0 0 0 0 0 0 0 0 0 0 0 0 0 0 0 0 0 0 0 0 0 0 0 0
0 0 0 0 0 0 0 0 0 0 0 0 0 0 0 0 0 0 0 0 0 0 0 0 0 0 0 0 0 0 0 0 0 0 0 0 0 0 0 0 0 0 0
0 0 0 0 0 0 0 0 0 0 0 0 0 0 0 0 0 0 0 0 0 0 0 0 0 0 0 0 0 0 0 0 0 0 0 0 0 0 0 0 0 0 0
0 0 0 0 0 0 0 0 0 0 0 0 0 0 0 0 0 0 0 0 0 0 0 0 0 0 0 0 0 0 0 0 0 0 0 0 0 0 0 0 0 0 0
0 0 0 0 0 0 0 0 0 0 0 0 0 0 0 0 0 0 0 0 0 0 0 0 0 0 0 0 0 0 0 0 0 0 0 0 0 0 0 0 0 0 0
0 0 0 0 0 0 0 0 0 0 0 0 0 0 0 0 0 0 0 0 0 0 0 0 0 0 0 0 0 0 0 0 0 0 0 0 0 0 0 0 0 0 0
0 0 0 0 0 0 0 0 0 0 0 0 0 0 0 0 0 0 0 0 0 0 0 0 0 0 0 0 0 0 0 0 0 0 0 0 0 0 0 0 0 0 0
0 0 0 0 0 0 0 0 0 0 0 0 0 0 0 0 0 0 0 0 0 0 0 0 0 0 0 0 0 0 0 0 0 0 0 0 0 0 0 0 0 0 0
0 0 0 0 0 0 0 0 0 0 0 0 0 0 0 0 0 0 0 0 0 0 0 0 0 0 0 0 0 0 0 -0 0 0 -0 -0 0 0 0 0 0 0 0
0 0 0 0 0 0 0 0 0 0 0 0 0 0 0 0 0 0 0 0 0 0 0 0 0 0 0 0 0 0 0 0 0 0 0 0 0 0 0 0 0 0 0
0 0 0 0 0 0 0 0 0 0 0 0 0 0 0 0 0 0 0 0 0 0 0 0 0 0 0 0 0 0 0 0 0 0 0 0 0 0 0 0 0 0 0
0 0 0 0 0 0 0 0 0 0 0 0 0 0 0 0 0 0 0 0 0 0 0 0 0 0 0 0 0 0 0 0 0 0 0 0 0 0 0 0 0 0 0
0 0 0 0 0 0 0 0 0 0 0 0 0 0 0 0 0 0 0 0 0 0 0 0 0 0 0 0 0 0 0 0 0 0 0 0 0 0 0 0 0 0 0
0 0 0 0 0 0 0 0 0 0 0 0 0 0 0 0 0 0 0 0 0 0 0 0 0 0 0 0 0 0 0 0 0 0 0 0 0 0 0 0 0 0 0
Wind_Speed_500mb
7 10 7 7 9 12 14 17 18 21 21 20 20 21 21 21 21 21 21 23 21 18 15 12 12 12 10 9 9 8 6 5 4 5 7 10 13 14 16 18 15 17 16
6 9 5 7 7 8 13 17 22 25 25 23 22 23 21 19 18 18 18 17 18 19 17 16 12 11 13 11 9 8 7 8 8 7 10 12 15 15 15 17 14 16 16
12 4 4 8 9 9 14 20 24 25 25 25 24 24 22 21 18 15 14 14 14 15 15 14 14 8 8 9 10 9 8 8 9 11 11 12 14 14 13 15 15 15 7
6 10 5 8 11 13 18 21 25 25 26 24 23 22 22 21 19 18 15 12 11 11 11 11 12 11 8 6 7 8 5 9 13 12 12 13 12 12 13 15 16 9 4
11 10 8 12 17 21 24 26 26 24 23 23 23 23 22 20 17 15 15 14 12 9 9 7 6 9 8 8 6 5 5 9 14 12 13 14 10 10 10 15 16 9 11
6 6 11 18 23 28 28 26 23 21 20 19 18 16 15 14 13 13 13 10 10 9 7 5 4 5 7 7 8 7 6 10 8 7 10 12 9 11 11 16 15 13 17
12 12 17 24 29 32 28 26 23 20 17 14 12 11 9 8 9 7 6 7 7 8 7 6 5 5 4 5 7 10 10 11 12 8 11 14 16 17 19 16 19 20 22
12 24 27 29 32 31 29 28 24 18 14 9 6 5 3 6 6 5 5 2 2 2 8 9 6 6 8 7 4 7 11 15 20 20 19 22 25 27 27 25 21 24 24
20 28 29 32 33 33 32 27 21 14 8 3 2 5 5 6 8 9 10 12 10 11 8 6 11 12 8 13 12 11 15 16 21 25 26 25 25 27 28 26 26 24 26
27 28 33 36 39 36 32 26 19 12 7 3 3 6 7 8 9 12 14 17 13 14 12 8 8 7 4 10 15 17 14 17 17 23 30 31 29 28 26 28 30 25 27
36 33 37 40 41 38 33 27 18 10 6 5 5 5 6 8 10 13 14 15 12 13 12 12 13 9 4 4 14 19 20 19 16 13 16 26 30 28 35 29 25 33 28
46 42 40 42 42 40 34 26 19 12 8 7 7 7 7 8 10 11 11 10 10 11 12 14 15 16 12 9 9 13 19 20 19 14 12 15 21 21 26 39 32 31 35
48 47 45 44 43 40 35 27 22 17 13 10 10 13 16 16 16 15 12 10 7 6 8 9 12 14 16 16 16 16 18 21 22 19 11 9 16 17 21 22 30 33 41
58 51 50 49 47 42 37 31 27 22 18 14 15 21 21 19 17 17 15 13 12 11 8 7 8 10 12 14 17 21 22 22 23 24 22 15 18 18 22 32 34 42 39
62 58 57 55 53 51 48 41 35 28 23 19 20 23 23 21 20 19 16 14 13 12 12 13 11 10 10 13 16 17 20 26 28 27 28 27 26 28 29 30 28 32 41
65 62 62 62 61 59 56 50 41 34 27 23 24 24 24 23 23 21 18 15 13 14 15 16 17 17 18 16 16 19 21 21 24 32 37 37 39 39 39 39 39 31 28
71 65 65 65 65 64 60 52 43 37 31 27 26 25 25 25 25 23 19 16 16 15 15 16 18 20 21 21 21 19 20 22 26 27 31 40 46 49 51 49 47 45 45
76 73 68 68 67 65 60 53 45 40 34 30 29 27 26 26 26 24 20 17 16 16 16 18 20 22 24 27 27 26 24 23 25 29 34 37 41 45 57 60 57 53 56
80 77 74 70 67 65 60 54 48 43 38 34 31 29 28 27 25 22 18 15 14 14 18 21 24 27 30 31 32 30 30 27 23 31 38 44 48 51 53 55 67 64 56
84 79 75 71 68 66 60 56 53 48 43 37 33 30 30 27 24 20 16 13 12 15 19 22 26 28 32 37 36 40 37 25 43 29 48 46 47 54 61 63 63 72 69
85 82 81 77 72 72 69 65 60 54 44 39 36 32 30 26 23 19 15 14 13 15 18 21 24 28 31 37 40 51 38 26 14 47 57 58 49 45 53 65 66 65 75
94 91 88 84 79 76 71 65 59 51 46 41 38 34 31 27 25 21 18 16 15 17 19 21 24 26 31 34 37 43 22 36 15 76 47 59 62 60 55 53 68 63 62
107 103 100 95 88 81 72 67 63 56 50 47 41 37 33 30 26 23 21 19 18 21 21 22 23 26 32 30 33 29 19 14 76 22 67 62 65 62 63 61 59 71 61
115 108 104 97 92 84 77 74 72 63 55 47 40 37 34 31 27 26 23 21 22 24 24 23 25 26 31 39 35 29 31 43 52 55 69 75 66 74 74 72 74 68 68
110 113 107 100 93 86 82 79 71 64 55 48 42 38 33 31 30 28 25 24 26 26 25 24 22 26 31 35 35 36 39 43 45 53 76 95 86 75 82 81 87 78 78
106 110 109 103 95 89 84 79 73 66 58 51 44 38 32 32 31 29 26 25 26 26 24 23 23 29 33 37 39 41 43 47 51 55 67 82 92 93 90 89 89 77 73
Wind_Direction_500mb
127 99 67 55 36 39 53 66 86 75 84 83 79 76 78 79 78 71 63 60 57 56 60 69 88 93 79 86 69 67 86 104 118 140 140 140 146 144 132 137 130 123 119
181 112 50 49 55 70 91 87 96 93 92 88 85 85 85 87 86 87 90 85 72 63 54 53 72 104 88 89 66 62 83 108 120 124 133 138 139 141 144 145 133 128 120
160 123 109 99 111 120 111 110 109 104 101 98 96 95 93 93 94 96 95 95 93 85 75 68 71 94 99 91 75 77 92 116 125 128 133 146 146 148 151 152 145 140 128
161 160 141 119 130 132 124 118 108 98 95 93 94 90 86 84 84 86 86 83 75 78 85 88 91 101 102 99 100 93 103 136 142 144 146 152 158 158 160 170 173 176 205
151 161 155 141 141 134 128 125 120 122 119 114 104 95 91 85 82 86 87 86 86 89 88 83 93 117 126 133 143 107 116 166 156 172 168 169 180 185 201 195 208 237 265
188 220 174 153 148 142 141 140 142 133 119 112 105 100 95 93 86 82 90 94 102 105 110 132 142 142 154 155 163 166 176 192 189 192 210 209 218 243 238 230 231 267 288
240 197 159 157 154 154 154 150 144 133 121 116 107 86 90 93 86 73 96 110 123 142 140 152 181 202 187 188 176 176 208 204 219 222 246 252 261 261 249 252 250 275 292
236 176 164 167 167 166 161 158 148 140 132 130 116 99 37 28 25 5 344 298 236 204 198 171 165 201 210 201 198 199 232 219 224 237 251 261 270 265 259 256 248 281 293
182 182 180 177 176 176 173 162 156 152 154 156 285 303 311 321 327 317 313 300 291 266 264 235 215 210 211 201 186 190 245 249 242 238 245 256 267 271 265 266 261 278 291
183 183 186 182 186 183 177 172 171 176 193 233 286 288 292 300 303 297 292 294 298 300 297 286 271 262 227 214 215 193 220 265 269 257 245 253 268 269 263 266 269 265 289
190 193 192 192 192 192 189 188 191 200 228 278 310 316 315 311 304 300 294 288 289 287 288 288 291 293 263 258 220 209 208 223 251 269 267 269 272 268 259 268 278 264 290
201 199 201 203 200 200 200 204 210 224 251 278 305 327 327 321 319 310 305 298 286 273 272 279 281 285 286 270 257 234 230 235 247 248 268 271 280 278 272 252 278 273 270
212 210 207 209 210 209 211 219 226 236 252 270 301 322 329 330 324 319 314 310 301 284 289 288 287 282 274 265 261 260 256 259 263 261 262 278 294 280 284 256 272 286 259
217 219 217 214 216 215 220 228 234 241 256 275 304 318 319 314 312 309 309 309 311 318 326 314 305 306 303 288 269 261 264 264 264 261 257 262 246 241 260 262 269 284 266
219 222 223 223 224 228 234 237 237 243 255 274 293 303 305 307 308 303 301 300 303 314 315 317 318 309 304 304 302 293 273 265 264 261 256 257 258 253 249 258 271 280 263
222 223 224 225 227 230 234 234 235 242 254 270 286 297 302 304 304 300 296 295 298 302 307 312 315 317 315 310 300 303 302 299 287 272 264 257 258 260 262 262 256 256 264
226 226 226 227 227 228 229 230 233 243 253 268 281 290 295 297 297 294 291 290 292 299 308 314 318 319 319 320 318 311 304 304 300 299 291 277 263 261 264 266 260 253 249
229 227 228 230 229 227 227 230 235 243 253 266 275 281 287 288 287 285 281 281 291 301 312 321 325 329 329 327 324 323 324 316 312 305 302 300 296 285 269 268 267 259 249
231 230 230 231 229 228 229 231 235 241 250 259 268 275 281 283 282 276 272 276 289 308 322 329 334 335 336 335 333 332 330 328 325 325 320 315 307 301 295 279 269 266 257
230 232 231 230 229 229 230 232 233 238 246 254 262 270 276 277 279 274 273 281 290 311 324 329 335 337 341 341 337 335 336 336 336 341 332 321 313 304 298 293 283 269 262
228 229 229 228 227 228 229 230 232 238 245 253 259 265 267 268 268 264 264 273 286 309 321 327 331 333 336 340 336 333 339 332 296 336 335 333 327 313 303 296 291 281 268
228 228 230 231 230 231 233 236 237 241 244 249 254 258 257 261 257 254 256 262 279 300 307 313 317 321 324 333 335 340 329 323 240 325 328 327 325 322 310 298 292 293 281
228 227 230 231 231 233 234 232 233 234 240 244 248 250 251 257 253 253 257 263 278 293 294 297 305 312 318 322 323 330 327 306 322 305 322 322 324 319 314 309 300 293 287
229 230 230 231 231 231 233 233 235 240 245 248 246 244 247 252 249 251 253 263 280 285 286 292 300 309 313 316 316 317 310 313 321 321 319 312 318 319 318 313 308 297 290
231 229 229 229 229 231 233 234 235 237 240 241 240 239 244 247 245 245 252 264 281 280 279 288 296 309 315 319 317 316 313 311 312 308 307 312 312 316 314 311 310 302 295
233 230 228 227 228 230 232 233 234 236 237 236 236 237 241 243 241 242 254 269 278 278 276 285 300 312 314 312 311 309 309 309 307 307 304 305 306 310 310 309 308 300 300
Wind_Speed_850mb
7 10 7 7 9 12 14 17 18 21 21 20 20 21 21 21 21 21 21 23 21 18 15 12 12 12 10 9 9 8 6 5 4 5 7 10 13 14 16 18 15 17 16
6 9 5 7 7 8 13 17 22 25 25 23 22 23 21 19 18 18 18 17 18 19 17 16 12 11 13 11 9 8 7 8 8 7 10 12 15 15 15 17 14 16 16
12 4 4 8 9 9 14 20 24 25 25 25 24 24 22 21 18 15 14 14 14 15 15 14 14 8 8 9 10 9 8 8 9 11 11 12 14 14 13 15 15 15 7
6 10 5 8 11 13 18 21 25 25 26 24 23 22 22 21 19 18 15 12 11 11 11 11 12 11 8 6 7 8 5 9 13 12 12 13 12 12 13 15 16 9 4
11 10 8 12 17 21 24 26 26 24 23 23 23 23 22 20 17 15 15 14 12 9 9 7 6 9 8 8 6 5 5 9 14 12 13 14 10 10 10 15 16 9 11
6 6 11 18 23 28 28 26 23 21 20 19 18 16 15 14 13 13 13 10 10 9 7 5 4 5 7 7 8 7 6 10 8 7 10 12 9 11 11 16 15 13 17
12 12 17 24 29 32 28 26 23 20 17 14 12 11 9 8 9 7 6 7 7 8 7 6 5 5 4 5 7 10 10 11 12 8 11 14 16 17 19 16 19 20 22
12 24 27 29 32 31 29 28 24 18 14 9 6 5 3 6 6 5 5 2 2 2 8 9 6 6 8 7 4 7 11 15 20 20 19 22 25 27 27 25 21 24 24
20 28 29 32 33 33 32 27 21 14 8 3 2 5 5 6 8 9 10 12 10 11 8 6 11 12 8 13 12 11 15 16 21 25 26 25 25 27 28 26 26 24 26
27 28 33 36 39 36 32 26 19 12 7 3 3 6 7 8 9 12 14 17 13 14 12 8 8 7 4 10 15 17 14 17 17 23 30 31 29 28 26 28 30 25 27
36 33 37 40 41 38 33 27 18 10 6 5 5 5 6 8 10 13 14 15 12 13 12 12 13 9 4 4 14 19 20 19 16 13 16 26 30 28 35 29 25 33 28
46 42 40 42 42 40 34 26 19 12 8 7 7 7 7 8 10 11 11 10 10 11 12 14 15 16 12 9 9 13 19 20 19 14 12 15 21 21 26 39 32 31 35
48 47 45 44 43 40 35 27 22 17 13 10 10 13 16 16 16 15 12 10 7 6 8 9 12 14 16 16 16 16 18 21 22 19 11 9 16 17 21 22 30 33 41
58 51 50 49 47 42 37 31 27 22 18 14 15 21 21 19 17 17 15 13 12 11 8 7 8 10 12 14 17 21 22 22 23 24 22 15 18 18 22 32 34 42 39
62 58 57 55 53 51 48 41 35 28 23 19 20 23 23 21 20 19 16 14 13 12 12 13 11 10 10 13 16 17 20 26 28 27 28 27 26 28 29 30 28 32 41
65 62 62 62 61 59 56 50 41 34 27 23 24 24 24 23 23 21 18 15 13 14 15 16 17 17 18 16 16 19 21 21 24 32 37 37 39 39 39 39 39 31 28
71 65 65 65 65 64 60 52 43 37 31 27 26 25 25 25 25 23 19 16 16 15 15 16 18 20 21 21 21 19 20 22 26 27 31 40 46 49 51 49 47 45 45
76 73 68 68 67 65 60 53 45 40 34 30 29 27 26 26 26 24 20 17 16 16 16 18 20 22 24 27 27 26 24 23 25 29 34 37 41 45 57 60 57 53 56
80 77 74 70 67 65 60 54 48 43 38 34 31 29 28 27 25 22 18 15 14 14 18 21 24 27 30 31 32 30 30 27 23 31 38 44 48 51 53 55 67 64 56
84 79 75 71 68 66 60 56 53 48 43 37 33 30 30 27 24 20 16 13 12 15 19 22 26 28 32 37 36 40 37 25 43 29 48 46 47 54 61 63 63 72 69
85 82 81 77 72 72 69 65 60 54 44 39 36 32 30 26 23 19 15 14 13 15 18 21 24 28 31 37 40 51 38 26 14 47 57 58 49 45 53 65 66 65 75
94 91 88 84 79 76 71 65 59 51 46 41 38 34 31 27 25 21 18 16 15 17 19 21 24 26 31 34 37 43 22 36 15 76 47 59 62 60 55 53 68 63 62
107 103 100 95 88 81 72 67 63 56 50 47 41 37 33 30 26 23 21 19 18 21 21 22 23 26 32 30 33 29 19 14 76 22 67 62 65 62 63 61 59 71 61
115 108 104 97 92 84 77 74 72 63 55 47 40 37 34 31 27 26 23 21 22 24 24 23 25 26 31 39 35 29 31 43 52 55 69 75 66 74 74 72 74 68 68
110 113 107 100 93 86 82 79 71 64 55 48 42 38 33 31 30 28 25 24 26 26 25 24 22 26 31 35 35 36 39 43 45 53 76 95 86 75 82 81 87 78 78
106 110 109 103 95 89 84 79 73 66 58 51 44 38 32 32 31 29 26 25 26 26 24 23 23 29 33 37 39 41 43 47 51 55 67 82 92 93 90 89 89 77 73
Wind_Direction_850mb
127 99 67 55 36 39 53 66 86 75 84 83 79 76 78 79 78 71 63 60 57 56 60 69 88 93 79 86 69 67 86 104 118 140 140 140 146 144 132 137 130 123 119
181 112 50 49 55 70 91 87 96 93 92 88 85 85 85 87 86 87 90 85 72 63 54 53 72 104 88 89 66 62 83 108 120 124 133 138 139 141 144 145 133 128 120
160 123 109 99 111 120 111 110 109 104 101 98 96 95 93 93 94 96 95 95 93 85 75 68 71 94 99 91 75 77 92 116 125 128 133 146 146 148 151 152 145 140 128
161 160 141 119 130 132 124 118 108 98 95 93 94 90 86 84 84 86 86 83 75 78 85 88 91 101 102 99 100 93 103 136 142 144 146 152 158 158 160 170 173 176 205
151 161 155 141 141 134 128 125 120 122 119 114 104 95 91 85 82 86 87 86 86 89 88 83 93 117 126 133 143 107 116 166 156 172 168 169 180 185 201 195 208 237 265
188 220 174 153 148 142 141 140 142 133 119 112 105 100 95 93 86 82 90 94 102 105 110 132 142 142 154 155 163 166 176 192 189 192 210 209 218 243 238 230 231 267 288
240 197 159 157 154 154 154 150 144 133 121 116 107 86 90 93 86 73 96 110 123 142 140 152 181 202 187 188 176 176 208 204 219 222 246 252 261 261 249 252 250 275 292
236 176 164 167 167 166 161 158 148 140 132 130 116 99 37 28 25 5 344 298 236 204 198 171 165 201 210 201 198 199 232 219 224 237 251 261 270 265 259 256 248 281 293
182 182 180 177 176 176 173 162 156 152 154 156 285 303 311 321 327 317 313 300 291 266 264 235 215 210 211 201 186 190 245 249 242 238 245 256 267 271 265 266 261 278 291
183 183 186 182 186 183 177 172 171 176 193 233 286 288 292 300 303 297 292 294 298 300 297 286 271 262 227 214 215 193 220 265 269 257 245 253 268 269 263 266 269 265 289
190 193 192 192 192 192 189 188 191 200 228 278 310 316 315 311 304 300 294 288 289 287 288 288 291 293 263 258 220 209 208 223 251 269 267 269 272 268 259 268 278 264 290
201 199 201 203 200 200 200 204 210 224 251 278 305 327 327 321 319 310 305 298 286 273 272 279 281 285 286 270 257 234 230 235 247 248 268 271 280 278 272 252 278 273 270
212 210 207 209 210 209 211 219 226 236 252 270 301 322 329 330 324 319 314 310 301 284 289 288 287 282 274 265 261 260 256 259 263 261 262 278 294 280 284 256 272 286 259
217 219 217 214 216 215 220 228 234 241 256 275 304 318 319 314 312 309 309 309 311 318 326 314 305 306 303 288 269 261 264 264 264 261 257 262 246 241 260 262 269 284 266
219 222 223 223 224 228 234 237 237 243 255 274 293 303 305 307 308 303 301 300 303 314 315 317 318 309 304 304 302 293 273 265 264 261 256 257 258 253 249 258 271 280 263
222 223 224 225 227 230 234 234 235 242 254 270 286 297 302 304 304 300 296 295 298 302 307 312 315 317 315 310 300 303 302 299 287 272 264 257 258 260 262 262 256 256 264
226 226 226 227 227 228 229 230 233 243 253 268 281 290 295 297 297 294 291 290 292 299 308 314 318 319 319 320 318 311 304 304 300 299 291 277 263 261 264 266 260 253 249
229 227 228 230 229 227 227 230 235 243 253 266 275 281 287 288 287 285 281 281 291 301 312 321 325 329 329 327 324 323 324 316 312 305 302 300 296 285 269 268 267 259 249
231 230 230 231 229 228 229 231 235 241 250 259 268 275 281 283 282 276 272 276 289 308 322 329 334 335 336 335 333 332 330 328 325 325 320 315 307 301 295 279 269 266 257
230 232 231 230 229 229 230 232 233 238 246 254 262 270 276 277 279 274 273 281 290 311 324 329 335 337 341 341 337 335 336 336 336 341 332 321 313 304 298 293 283 269 262
228 229 229 228 227 228 229 230 232 238 245 253 259 265 267 268 268 264 264 273 286 309 321 327 331 333 336 340 336 333 339 332 296 336 335 333 327 313 303 296 291 281 268
228 228 230 231 230 231 233 236 237 241 244 249 254 258 257 261 257 254 256 262 279 300 307 313 317 321 324 333 335 340 329 323 240 325 328 327 325 322 310 298 292 293 281
228 227 230 231 231 233 234 232 233 234 240 244 248 250 251 257 253 253 257 263 278 293 294 297 305 312 318 322 323 330 327 306 322 305 322 322 324 319 314 309 300 293 287
229 230 230 231 231 231 233 233 235 240 245 248 246 244 247 252 249 251 253 263 280 285 286 292 300 309 313 316 316 317 310 313 321 321 319 312 318 319 318 313 308 297 290
231 229 229 229 229 231 233 234 235 237 240 241 240 239 244 247 245 245 252 264 281 280 279 288 296 309 315 319 317 316 313 311 312 308 307 312 312 316 314 311 310 302 295
233 230 228 227 228 230 232 233 234 236 237 236 236 237 241 243 241 242 254 269 278 278 276 285 300 312 314 312 311 309 309 309 307 307 304 305 306 310 310 309 308 300 300